Regional Weather Roundup
Issued by NWS

Home | Current Version | Previous Version | Text Only | Print | Product List | Glossary On
Versions: 1 2 3 4 5 6 7 8 9 10 11 12 13 14 15 16 17 18 19 20 21 22 23 24 25 26 27 28 29 30 31 32 33 34 35 36 37 38 39 40 41 42 43 44 45 46 47 48 49 50
180
ASUS43 KLSX 160907
RWRMO

WEATHER SUMMARY FOR MISSOURI
NATIONAL WEATHER SERVICE SPRINGFIELD MO
300 AM CST SAT DEC 16 2017

NOTE: "FAIR" INDICATES FEW OR NO CLOUDS BELOW 12,000 FEET WITH NO
       SIGNIFICANT WEATHER AND/OR OBSTRUCTIONS TO VISIBILITY.
       CURRENT SKY AND/OR WEATHER CONDITIONS ARE NOT AVAILABLE FOR
       CHILLICOTHE AND FARMINGTON.

MOZ001>031-035>038-043-044-053-054-161000-
...NORTHERN AND WESTERN MISSOURI...

CITY           SKY/WX    TMP DP  RH WIND       PRES   REMARKS
KANSAS CTY INT CLEAR     38  24  57 SW18      29.86F WCI  28
KANSAS C DTWN  CLEAR     43  23  45 SW15      29.89S
LEE`S SUMMIT   CLEAR     40  24  53 SW18G25   29.91S
ST JOSEPH      CLEAR     40  27  59 S12       29.86R
CHILLICOTHE      N/A     35  24  64 S7        29.89R WCI  29
KIRKSVILLE     CLEAR     37  27  67 SW13      29.87S WCI  29

$$
MOZ066>068-077>081-088>096-101>105-161000-
...SOUTHWEST MISSOURI...

CITY           SKY/WX    TMP DP  RH WIND       PRES   REMARKS
SPRINGFIELD    CLOUDY    32  25  75 S10       30.02S WCI  24
JOPLIN         CLEAR     39  25  57 S16       30.02F
BRANSON        CLOUDY    37  23  56 CALM      30.06F

$$
MOZ032>034-039>042-045>050-055>058-069>072-161000-
...CENTRAL MISSOURI...

CITY           SKY/WX    TMP DP  RH WIND       PRES   REMARKS
COLUMBIA       CLEAR     33  25  72 S10       29.96S WCI  25
JEFFERSON CITY CLEAR     37  25  61 SE5       30.00S
ROLLA          CLEAR     34  25  69 S15       30.00F WCI  24
SEDALIA        CLEAR     40  27  59 SW20G25   29.95S
WHITEMAN AFB   CLEAR     38  24  56 SW17      29.89F WCI  28
WARRENSBURG    CLEAR     36  25  64 S12       29.94S WCI  27
OSAGE BEACH    CLEAR     32  24  72 S7        30.01F WCI  26

$$
MOZ051-052-059>065-161000-
...EAST CENTRAL MISSOURI...

CITY           SKY/WX    TMP DP  RH WIND       PRES   REMARKS
ST LOUIS INTL  CLEAR     37  26  64 SW15      30.00F WCI  28
SPIRIT OF STL  CLEAR     37  26  64 SW12      30.00F WCI  29
ST CHARLES     CLEAR     26  21  81 E5        30.00F WCI  20

$$
MOZ072>076-082>087-097>100-106>115-161000-
...SOUTH CENTRAL AND SOUTHEAST MISSOURI...

CITY           SKY/WX    TMP DP  RH WIND       PRES   REMARKS
CAPE GIRARDEAU PTCLDY    30  25  81 CALM      30.13S
FARMINGTON     CLEAR     30  25  81 S6        30.07R WCI  24
POPLAR BLUFF   PTCLDY    31  28  89 S7        30.13F WCI  24
WEST PLAINS    CLOUDY    33  26  75 SW5       30.08R WCI  29

$$



USA.gov is the U.S. government's official web portal to all federal, state and local government web resources and services.